Kiruna, Sweden

1:15 AM CET on February 07, 2016 (GMT +0100)
Kiruna

Weather History for ESNQ - December, 2013

Change the Weather History Date:

Saturday, December 7, 2013

  Actual Average Record
Temperature  
Mean Temperature -5 °F -  
Max Temperature 1 °F - - ()
Min Temperature -11 °F - - ()
Degree Days  
Heating Degree Days 70    
Moisture  
Dew Point -9 °F    
Average Humidity 85    
Maximum Humidity 92    
Minimum Humidity 77    
Precipitation  
Precipitation 0.00 in - - ()
Sea Level Pressure  
Sea Level Pressure 29.71 in    
Wind  
Wind Speed 4 mph ()    
Max Wind Speed 14 mph    
Max Gust Speed -    
Visibility 6.2 miles    
Events      
T = Trace of Precipitation, MM = Missing Value Source: Averaged Metar Reports

Daily Weather History Graph

Daily Weather History Graph

Search for Another Location

Airport or City:

Trip Planner

Search our weather history database for the weather conditions in past years. The results will help you decide how hot, cold, wet, or windy it might be!

Date:

Astronomy

Dec. 07, 2013 Rise Set
Actual Time 10:45 AM CET 12:14 PM CET
Civil Twilight 8:35 AM CET 2:24 PM CET
Nautical Twilight 7:10 AM CET 3:49 PM CET
Astronomical Twilight 6:01 AM CET 4:58 PM CET
Moon 11:39 AM CET 8:25 PM CET
Length of Visible Light 5h 49m
Length of Day
1h 28m
Waxing Crescent, 26% of the Moon is Illuminated
Dec 7
Waxing Crescent
Dec 9
First Quarter
Dec 17
Full
Dec 25
Last Quarter
Jan 1
New

Hourly Weather History & Observations

Time (CET) Temp. Windchill Dew Point Humidity Pressure Visibility Wind Dir Wind Speed Gust Speed Precip Events Conditions
12:20 AM -4.0 °F - -7.6 °F 85% 29.56 in - South 2.3 mph - N/A   Clear
12:50 AM -9.4 °F - -13.0 °F 84% 29.56 in - SSW 2.3 mph - N/A   Clear
1:20 AM -4.0 °F -12.4 °F -7.6 °F 85% 29.56 in - SSE 3.5 mph - N/A   Clear
1:50 AM -0.4 °F - -4.0 °F 85% 29.56 in 6.2 mi SE 2.3 mph - N/A   Unknown
2:20 AM -2.2 °F - -4.0 °F 92% 29.59 in 6.2 mi SE 2.3 mph - N/A   Unknown
2:50 AM -0.4 °F - -4.0 °F 85% 29.59 in 6.2 mi SSE 2.3 mph - N/A   Unknown
3:20 AM 1.4 °F -6.2 °F -0.4 °F 92% 29.59 in 6.2 mi SSE 3.5 mph - N/A   Unknown
3:50 AM -0.4 °F - -4.0 °F 85% 29.59 in 6.2 mi South 2.3 mph - N/A   Unknown
4:20 AM -4.0 °F - -7.6 °F 85% 29.62 in 6.2 mi South 2.3 mph - N/A   Unknown
4:50 AM -0.4 °F - -2.2 °F 92% 29.62 in 6.2 mi SSW 2.3 mph - N/A   Unknown
5:20 AM -2.2 °F - -5.8 °F 85% 29.62 in 6.2 mi Variable 2.3 mph - N/A   Unknown
5:50 AM -7.6 °F -16.5 °F -13.0 °F 77% 29.65 in 6.2 mi South 3.5 mph - N/A   Unknown
6:20 AM -2.2 °F -10.4 °F -5.8 °F 85% 29.65 in 6.2 mi South 3.5 mph - N/A   Unknown
6:50 AM -5.8 °F - -9.4 °F 84% 29.65 in - Variable 1.2 mph - N/A   Clear
7:20 AM -5.8 °F -14.5 °F -9.4 °F 84% 29.65 in - SSW 3.5 mph - N/A   Clear
7:50 AM -5.8 °F - -7.6 °F 92% 29.68 in - South 2.3 mph - N/A   Clear
8:20 AM -9.4 °F -18.6 °F -13.0 °F 84% 29.68 in - South 3.5 mph - N/A   Clear
8:50 AM -7.6 °F - -11.2 °F 84% 29.68 in - Variable 2.3 mph - N/A   Clear
9:20 AM -7.6 °F - -11.2 °F 84% 29.71 in - South 2.3 mph - N/A   Clear
9:50 AM -11.2 °F -20.6 °F -14.8 °F 84% 29.71 in - WNW 3.5 mph - N/A   Clear
10:20 AM -5.8 °F -14.5 °F -9.4 °F 84% 29.71 in - SSW 3.5 mph - N/A   Clear
10:50 AM -7.6 °F - -11.2 °F 84% 29.74 in - SSW 2.3 mph - N/A   Clear
11:20 AM -7.6 °F -20.6 °F -11.2 °F 84% 29.74 in - SW 5.8 mph - N/A   Clear
11:50 AM -4.0 °F -16.3 °F -7.6 °F 85% 29.74 in - SSW 5.8 mph - N/A   Clear
12:20 PM -5.8 °F -16.7 °F -7.6 °F 92% 29.74 in - SSW 4.6 mph - N/A   Clear
12:50 PM -5.8 °F -18.4 °F -9.4 °F 84% 29.74 in - SSW 5.8 mph - N/A   Clear
1:20 PM -2.2 °F -12.5 °F -5.8 °F 85% 29.74 in - SSW 4.6 mph - N/A   Clear
1:50 PM -4.0 °F -16.3 °F -7.6 °F 85% 29.74 in - SW 5.8 mph - N/A   Clear
2:20 PM -5.8 °F -19.9 °F -9.4 °F 84% 29.74 in - SW 6.9 mph - N/A   Clear
2:50 PM -5.8 °F -19.9 °F -9.4 °F 84% 29.77 in - SW 6.9 mph - N/A   Clear
3:20 PM -4.0 °F -17.8 °F -7.6 °F 85% 29.77 in 6.2 mi SW 6.9 mph - N/A   Unknown
3:50 PM -5.8 °F -19.9 °F -9.4 °F 84% 29.77 in 6.2 mi SW 6.9 mph - N/A   Unknown
4:20 PM -5.8 °F -23.4 °F -9.4 °F 84% 29.77 in 6.2 mi SW 10.4 mph - N/A   Unknown
4:50 PM -7.6 °F -24.6 °F -11.2 °F 84% 29.77 in 6.2 mi SW 9.2 mph - N/A   Unknown
5:20 PM -4.0 °F -19.0 °F -7.6 °F 85% 29.77 in 6.2 mi SSW 8.1 mph - N/A   Unknown
5:50 PM -7.6 °F -23.4 °F -11.2 °F 84% 29.77 in 6.2 mi SSW 8.1 mph - N/A   Unknown
6:20 PM -5.8 °F -21.2 °F -9.4 °F 84% 29.77 in 6.2 mi SW 8.1 mph - N/A   Unknown
6:50 PM -5.8 °F -24.4 °F -9.4 °F 84% 29.77 in 6.2 mi SW 11.5 mph - N/A   Unknown
7:20 PM -9.4 °F -25.6 °F -13.0 °F 84% 29.80 in 6.2 mi SW 8.1 mph - N/A   Unknown
7:50 PM -7.6 °F -24.6 °F -11.2 °F 84% 29.80 in 6.2 mi SW 9.2 mph - N/A   Unknown
8:20 PM -7.6 °F -24.6 °F -11.2 °F 84% 29.80 in 6.2 mi SW 9.2 mph - N/A   Unknown
8:50 PM -9.4 °F -27.9 °F -13.0 °F 84% 29.80 in 6.2 mi SW 10.4 mph - N/A   Unknown
9:20 PM -9.4 °F -25.6 °F -13.0 °F 84% 29.80 in 6.2 mi SSW 8.1 mph - N/A   Unknown
9:50 PM -5.8 °F -22.4 °F -9.4 °F 84% 29.80 in 6.2 mi SSW 9.2 mph - N/A   Unknown
10:20 PM -5.8 °F -26.0 °F -9.4 °F 84% 29.77 in 6.2 mi SW 13.8 mph - N/A   Unknown
10:50 PM -5.8 °F -22.4 °F -9.4 °F 84% 29.80 in 6.2 mi SW 9.2 mph - N/A   Unknown
11:20 PM -9.4 °F -26.8 °F -13.0 °F 84% 29.80 in 6.2 mi SSW 9.2 mph - N/A   Unknown
11:50 PM -9.4 °F -28.9 °F -13.0 °F 84% 29.80 in 6.2 mi SW 11.5 mph - N/A   Unknown